Regional Weather Roundup
Issued by NWS

Home | Current Version | Previous Version | Text Only | Print | Product List | Glossary Off
Versions: 1 2 3 4 5 6 7 8 9 10 11 12 13 14 15 16 17 18 19 20 21 22 23 24 25 26 27 28 29 30 31 32 33 34 35 36 37 38 39 40 41 42 43 44 45 46 47 48 49 50

464
ASUS45 KCYS 282010
RWRWY

WYOMING REGIONAL WEATHER ROUNDUP
NATIONAL WEATHER SERVICE CHEYENNE WY
200 PM MDT SUN AUG 28 2016

NOTE:  "FAIR" INDICATES FEW OR NO CLOUDS BELOW 12,000 FEET
WITH NO SIGNIFICANT WEATHER AND/OR OBSTRUCTIONS TO VISIBILITY.

WYZ001-282100-
YELLOWSTONE NATIONAL PARK

CITY           SKY/WX    TMP DP  RH WIND       PRES   REMARKS
LK YELLOWSTONE   N/A     70  27  20 VRB5      30.34F
W YELLOWSTONE  NOT AVBL

$$
WYZ002>013-054>058-071-098>099-282100-
NORTHERN WYOMING

CITY           SKY/WX    TMP DP  RH WIND       PRES   REMARKS
JACKSON        SUNNY     79  27  14 SW10G17   30.25F
CODY           FAIR      81  36  19 SW9       30.10F
GREYBULL       FAIR      85  27  12 SE5       30.05S
WORLAND        NOT AVBL
SHERIDAN       FAIR      90  33  13 N9        30.04R
BUFFALO        FAIR      88  27  11 NE6       30.10S
GILLETTE       FAIR      88  28  11 NE12      30.05R
HULETT         FAIR      88  30  12 SW10G16   30.05S
NEWCASTLE      FAIR      86  28  12 W5        30.06F

$$
WYZ014>020-022>026-101>103-282100-
CENTRAL WYOMING

CITY           SKY/WX    TMP DP  RH WIND       PRES   REMARKS
BIG PINEY      FAIR      78  27  15 NW10      30.30F
PINEDALE       FAIR      75  27  16 W16       30.31S
DUBOIS         FAIR      75  23  14 W21G26    30.27S
LANDER         FAIR      85  28  12 E8        30.14F
RIVERTON       FAIR      85  26  11 N5        30.15F
CASPER         FAIR      84  28  13 SW10G22   30.14S
DOUGLAS        FAIR      86  26  11 NW13G20   30.12F

$$
WYZ021-027>030-104>119-282100-
SOUTHERN WYOMING

CITY           SKY/WX    TMP DP  RH WIND       PRES   REMARKS
EVANSTON       PTSUNNY   81  24  12 W16G26    30.32S
FORT BRIDGER   FAIR      80  24  12 NW14      30.34S
ROCK SPRINGS   FAIR      78  21  12 NW13G26   30.28F
DIXON          FAIR      80  27  14 W5        30.30F
RAWLINS        FAIR      79  26  14 MISG      30.27F
SARATOGA       FAIR      79  27  14 W10G17    30.30F
LARAMIE        FAIR      74  25  16 S6        30.28F
CHEYENNE       FAIR      85  31  14 NE3       30.20F
TORRINGTON     FAIR      90  27  10 VRB6      30.06F
PINE BLUFFS    MOCLDY    84  37  18 E5        30.15F

$$




USA.gov is the U.S. government's official web portal to all federal, state and local government web resources and services.